SCP
0 1 1 1 1 1 1 1 2 2 2 2 1 1 1 1 0 0 0 0 0 0 0 0 0 0 0 0 0 0 0 0 0 0 0 0 0 0 0 0 0 0 0
0 1 1 1 1 1 1 1 2 2 2 2 1 1 1 1 0 0 0 0 0 0 0 0 0 0 0 0 0 0 0 0 0 0 0 0 0 0 0 0 0 0 0
1 1 1 1 2 2 2 2 2 2 2 2 2 1 1 1 1 0 0 0 0 0 0 0 0 0 0 0 0 0 0 0 0 0 0 0 0 0 0 0 0 0 0
1 1 1 1 2 2 2 2 2 2 2 2 2 1 1 1 1 0 0 0 0 0 0 0 0 0 0 0 0 0 0 0 0 0 0 0 0 0 0 0 0 0 0
1 1 1 1 2 2 2 2 2 2 2 2 2 1 1 1 1 1 0 0 0 0 0 0 0 0 0 0 0 0 0 0 0 0 0 0 0 0 0 0 0 0 0
0 1 1 1 1 1 1 1 1 1 1 1 1 1 1 1 1 1 1 0 0 0 0 0 0 0 0 0 0 0 0 0 0 0 0 0 0 0 0 0 0 0 0
0 1 1 1 1 1 1 1 1 1 1 1 1 1 1 1 1 1 1 1 0 0 0 0 0 0 0 0 0 0 0 0 0 0 0 0 0 0 0 0 0 0 0
0 0 1 1 1 1 1 1 1 1 1 1 1 1 1 1 1 1 1 1 0 0 0 0 0 0 0 0 0 0 0 0 0 0 0 0 0 0 0 0 0 0 0
0 0 1 1 1 1 1 1 1 1 1 1 1 1 1 1 1 1 1 1 0 0 0 0 0 0 0 0 0 0 0 0 0 0 0 0 0 0 0 0 0 0 0
0 0 1 1 1 1 1 1 1 1 1 1 1 1 1 1 1 1 1 1 0 0 0 0 0 0 0 0 0 0 0 0 0 0 0 0 0 0 0 0 0 0 0
0 0 0 1 1 1 1 1 1 1 1 1 1 1 1 1 1 1 0 0 0 0 0 0 0 0 0 0 0 0 0 0 0 0 0 0 0 0 0 0 0 0 0
0 0 0 0 0 1 1 0 1 1 1 1 1 1 1 0 0 0 0 0 0 0 0 0 0 0 0 0 0 0 0 0 0 0 0 0 0 0 0 0 0 0 0
0 0 0 0 0 0 0 0 0 0 0 1 1 1 0 0 0 0 0 0 0 0 0 0 0 0 0 0 0 0 0 0 0 0 0 0 0 0 0 0 0 0 0
0 0 0 0 0 0 0 0 0 0 0 0 0 0 0 0 0 0 0 0 0 0 0 0 0 0 0 0 0 0 0 0 0 0 0 0 0 0 0 0 0 0 0
0 0 0 0 0 0 0 0 0 0 0 0 0 0 0 0 0 0 0 0 0 0 0 0 0 0 0 0 0 0 0 0 0 0 0 0 0 0 0 0 0 0 0
0 0 0 0 0 0 0 0 0 0 0 0 0 0 0 0 0 0 0 0 0 0 0 0 0 0 0 0 0 0 0 0 0 0 0 0 0 0 0 0 0 0 0
0 0 0 0 0 0 0 0 0 0 0 0 0 0 0 0 0 0 0 0 0 0 0 0 0 0 0 0 0 0 0 0 0 0 0 0 0 0 0 0 0 0 0
0 0 0 0 0 0 0 0 0 0 0 0 0 0 0 0 0 0 0 0 0 0 0 0 0 0 0 0 0 0 0 0 0 0 0 0 0 0 0 0 0 0 0
0 0 0 0 0 0 0 0 0 0 0 0 0 0 0 0 0 0 0 0 0 0 0 0 0 0 0 0 0 0 0 0 0 0 0 0 0 0 0 0 0 0 0
0 0 0 0 0 0 0 0 0 0 0 0 0 0 0 0 0 0 0 0 0 0 0 0 0 0 0 0 0 0 0 0 0 0 0 0 0 0 0 0 0 0 0
0 0 0 0 0 0 0 0 0 0 0 0 0 0 0 0 0 0 0 0 0 0 0 0 0 0 0 0 0 0 0 0 0 0 0 0 0 0 0 0 0 0 0
0 0 0 0 0 0 0 0 0 0 0 0 0 0 0 0 0 0 0 0 0 0 0 0 0 0 0 0 0 0 0 0 0 0 0 0 0 0 0 0 0 0 0
0 0 0 0 0 0 0 0 0 0 0 0 0 0 0 0 0 0 0 0 0 0 0 0 0 0 0 0 0 0 0 0 0 0 0 0 0 0 0 0 0 0 0
0 0 0 0 0 0 0 0 0 0 0 0 0 0 0 0 0 0 0 0 0 0 0 0 0 0 0 0 0 0 0 0 0 0 0 0 0 0 0 0 0 0 0
0 0 0 0 0 0 0 0 0 0 0 0 0 0 0 0 0 0 0 0 0 0 0 0 0 0 0 0 0 0 0 0 0 0 0 0 0 0 0 0 0 0 0
0 0 0 0 0 0 0 0 0 0 0 0 0 0 0 0 0 0 0 0 0 0 0 0 0 0 0 0 0 0 0 0 0 0 0 0 0 0 0 0 0 0 0
Wind_Speed
2 4 11 15 16 16 15 15 15 15 16 17 18 19 19 19 18 17 16 16 15 14 15 15 16 15 15 16 15 15 14 15 15 15 14 13 14 15 15 15 13 9 16
2 5 10 13 15 16 16 15 14 14 14 16 17 19 19 19 18 17 17 16 15 15 15 15 16 16 16 16 16 15 15 15 15 14 12 10 11 14 14 14 13 9 15
1 4 8 11 12 14 15 15 14 14 15 15 17 18 18 18 18 17 17 16 15 15 15 16 16 16 16 16 15 15 15 14 14 13 10 5 8 13 14 13 13 14 14
1 3 5 9 11 12 14 15 15 15 15 15 16 17 17 18 18 17 17 16 16 15 15 15 15 16 15 15 15 14 14 14 13 11 5 4 5 12 13 13 13 13 13
2 1 3 7 10 11 13 15 15 16 16 15 15 15 16 17 17 17 16 16 15 14 14 15 15 15 15 14 14 14 14 13 12 8 4 4 3 10 12 12 12 12 12
3 2 1 6 8 10 11 14 15 16 16 15 15 15 16 17 17 16 16 15 14 14 15 15 15 14 14 13 13 13 13 12 9 5 4 3 3 9 11 11 11 11 11
2 2 1 3 7 9 11 12 14 15 16 16 15 15 16 16 16 16 15 14 15 15 15 15 15 14 13 13 13 13 12 11 6 4 3 3 4 10 10 10 10 10 10
1 1 1 1 4 7 9 11 12 13 15 15 16 16 16 16 16 16 15 15 15 16 15 15 14 14 13 12 13 12 12 9 7 4 3 2 5 9 9 9 9 9 9
2 1 1 1 2 5 7 8 11 11 11 13 14 14 13 13 15 16 15 15 15 15 15 14 14 13 12 12 12 11 10 8 5 3 3 2 5 8 9 8 8 8 8
2 1 1 1 1 2 4 7 9 10 10 11 12 12 12 12 13 14 13 14 14 14 14 13 13 13 11 11 10 10 9 7 4 3 2 3 6 8 8 7 7 7 7
4 3 2 2 2 2 2 4 7 8 9 9 9 11 10 7 8 9 10 12 13 13 13 13 12 11 9 8 9 9 7 3 3 2 2 5 7 7 7 7 6 6 6
5 4 3 3 2 2 3 2 3 4 5 5 6 7 6 6 6 7 10 12 12 12 12 12 11 10 6 4 5 6 3 3 2 2 3 6 7 7 7 7 6 6 6
6 6 5 4 4 3 3 2 1 2 3 4 6 7 6 5 5 5 5 6 7 9 7 8 7 4 4 3 3 3 3 3 2 2 3 7 7 8 7 7 7 7 6
6 7 6 5 5 4 4 3 2 3 3 3 5 7 6 5 5 5 4 5 5 4 5 4 4 4 4 4 4 4 4 3 3 2 3 7 8 8 8 8 8 8 7
7 7 7 6 6 5 4 3 3 3 4 5 4 6 7 6 6 6 5 5 5 4 5 5 5 5 4 4 4 4 4 4 4 3 3 6 8 8 9 9 9 9 8
8 7 7 7 7 6 5 4 4 3 4 4 4 6 8 6 6 6 6 6 5 5 5 5 5 5 4 3 4 4 4 4 4 4 3 4 7 8 9 10 10 10 9
7 7 6 7 7 7 6 6 4 4 4 4 4 6 7 7 7 7 6 6 6 5 6 4 5 3 3 3 4 4 4 4 4 4 4 3 3 6 8 10 11 11 10
6 6 6 6 6 7 6 5 4 4 4 4 4 5 6 7 8 7 6 6 6 6 6 6 5 4 4 4 3 3 3 3 4 4 4 4 3 3 6 9 9 10 10
6 5 6 6 6 6 6 5 4 4 3 4 4 4 5 7 7 7 6 6 7 6 6 6 5 5 5 4 3 3 3 3 4 4 4 5 4 4 3 5 7 8 9
5 4 4 4 5 6 5 4 3 3 3 3 4 5 5 6 7 7 6 7 7 6 6 6 6 5 5 4 3 2 2 3 3 4 5 4 4 4 4 4 3 4 7
3 3 4 4 5 5 4 4 4 5 4 4 4 5 6 6 6 6 6 7 7 7 7 8 5 6 4 3 2 1 1 2 3 3 3 3 4 4 4 4 3 3 3
2 3 3 5 4 5 4 4 4 4 4 4 4 5 6 6 7 6 7 7 8 7 8 8 6 5 3 4 4 3 1 1 2 3 3 4 4 3 4 4 3 4 3
2 3 3 4 5 5 5 3 3 3 3 3 3 4 5 7 8 8 8 7 7 8 8 8 8 8 6 4 4 4 4 4 2 2 4 4 4 4 4 3 4 4 3
2 1 2 3 4 4 5 5 6 5 5 4 4 4 4 6 6 7 8 8 8 7 8 8 8 6 7 6 4 3 3 3 3 2 2 3 4 4 5 4 4 4 4
3 1 1 2 2 3 4 5 5 5 4 3 3 4 4 4 5 6 7 8 7 7 8 8 7 7 6 6 5 3 2 2 2 3 4 3 3 4 4 4 4 4 4
4 2 1 1 1 1 3 4 5 5 5 4 4 5 4 3 3 5 6 6 6 6 7 8 8 8 7 6 4 4 4 3 4 3 4 4 4 4 4 4 5 5 4
Wind_Direction
260 191 178 167 165 164 162 158 154 149 146 146 146 146 146 145 144 142 141 138 134 132 129 128 127 125 121 117 113 110 106 102 97 93 89 88 90 91 88 84 81 76 83
216 185 177 165 166 166 164 161 156 151 149 148 148 149 149 148 146 146 144 142 138 134 131 129 127 124 121 118 114 111 107 104 101 95 88 87 93 95 94 92 90 88 87
151 170 171 165 164 168 165 162 159 156 154 152 151 151 151 150 149 149 147 144 140 137 134 131 127 124 122 120 117 114 111 109 107 101 93 86 98 102 100 97 95 92 91
112 154 166 165 166 168 168 165 163 162 160 157 156 155 155 153 152 152 150 147 143 140 137 133 130 127 123 122 121 119 116 113 110 104 88 84 98 107 104 102 98 96 94
44 122 167 165 169 170 171 170 169 167 164 163 161 160 159 157 155 154 153 148 144 141 139 136 133 130 128 127 126 123 120 118 110 98 87 83 89 108 104 102 100 98 97
14 12 161 163 168 173 171 173 175 173 170 168 167 164 163 160 158 156 152 147 144 144 142 139 137 135 133 132 131 129 125 120 107 95 90 88 93 112 110 108 106 104 102
6 355 345 169 173 178 175 172 175 179 176 174 172 170 167 165 161 157 151 149 149 149 147 144 143 140 138 138 135 133 129 125 115 107 103 101 122 123 120 118 115 112 108
339 339 336 204 187 181 183 179 175 180 182 179 177 175 171 168 163 158 155 154 156 155 153 150 148 147 144 143 141 138 135 133 127 123 121 128 139 131 128 126 124 122 117
323 317 303 220 192 182 182 184 180 178 183 183 180 176 173 169 165 161 159 161 162 160 157 155 153 151 149 147 145 144 143 136 133 140 143 150 150 142 138 137 136 133 127
308 280 265 237 206 179 184 193 185 180 182 182 181 176 173 169 165 163 163 165 166 163 160 159 158 156 152 150 150 150 146 133 138 145 151 175 165 156 151 150 150 146 139
287 265 241 225 215 190 189 201 192 183 183 182 177 172 168 166 164 164 166 167 168 165 163 163 161 157 149 149 152 151 140 135 148 162 182 189 175 169 164 165 165 161 157
268 260 241 226 219 202 201 196 200 188 182 179 173 169 168 164 165 163 167 170 171 167 166 166 162 153 141 141 149 143 141 153 163 184 206 200 188 182 179 179 179 180 178
253 255 238 225 211 202 197 186 194 185 177 176 176 170 166 162 161 160 162 168 168 165 163 164 156 149 149 152 153 155 161 167 180 200 213 211 203 198 195 195 196 199 195
241 248 238 222 212 203 197 189 185 191 181 174 182 171 165 164 165 166 169 168 168 166 162 158 156 153 156 162 165 170 179 187 194 202 218 217 215 211 207 206 208 209 208
239 243 235 218 211 201 192 191 186 196 187 176 180 178 169 168 170 170 170 172 171 166 166 162 162 164 166 171 181 185 193 199 201 206 219 220 221 221 217 217 217 217 217
240 240 225 212 204 195 193 189 187 191 193 176 176 184 173 171 172 172 173 175 176 173 171 168 169 171 176 179 194 198 201 202 206 209 213 221 223 226 227 226 226 226 229
240 232 217 211 198 194 194 192 189 188 190 180 175 183 180 175 174 175 176 179 179 173 168 164 163 164 175 185 199 203 203 208 210 213 213 216 223 229 232 234 234 235 238
236 226 219 219 200 193 192 188 184 187 189 185 177 178 183 181 176 175 179 183 177 172 174 175 173 175 185 189 198 207 208 210 215 216 215 217 218 225 232 237 240 242 243
230 217 216 209 205 196 191 185 178 179 194 190 177 176 185 185 182 180 183 182 176 176 180 181 180 177 185 192 199 207 210 212 215 212 218 221 220 221 224 234 236 239 241
230 210 209 205 205 195 186 172 171 181 195 190 180 182 186 187 185 183 185 181 176 180 184 184 184 183 184 184 190 206 222 224 217 215 218 219 218 220 219 226 231 235 233
212 199 204 204 210 192 175 173 177 189 191 185 189 187 192 187 187 187 188 183 181 188 191 184 178 181 183 161 148 204 282 234 224 223 214 210 216 220 214 218 223 226 233
207 204 204 211 206 196 186 179 180 184 185 182 186 190 197 192 190 194 191 191 189 189 190 187 173 174 179 174 163 153 220 280 245 223 213 214 217 210 215 221 219 224 224
245 212 214 214 209 196 186 175 180 169 160 168 181 197 204 199 196 196 191 194 193 191 193 193 186 183 183 188 180 166 174 215 242 230 220 219 213 207 215 216 220 226 223
313 260 217 210 198 194 184 183 183 183 184 190 189 196 203 202 202 201 194 193 196 194 192 194 192 192 183 189 198 207 192 168 186 236 232 218 215 216 216 219 220 221 220
344 330 245 206 182 190 188 189 184 192 191 182 178 186 198 199 199 202 198 192 193 196 194 193 194 193 192 194 192 191 198 207 196 204 242 234 233 226 219 215 213 217 219
4 11 19 89 133 179 180 184 188 191 184 180 191 190 190 188 194 199 199 195 194 197 196 195 194 195 199 199 201 197 192 194 198 205 227 233 244 240 223 216 214 216 218